Change the Weather History Date:

Wednesday, January 30, 2013

  Actual Average (KLAS) Record (KLAS)
Temperature  
Mean Temperature 48 °F 50 °F  
Max Temperature 61 °F 60 °F 73 °F (2014)
Min Temperature 34 °F 41 °F 18 °F (1949)
Degree Days  
Heating Degree Days 18 15  
Month to date heating degree days 490  
Since 1 July heating degree days 1337  
Cooling Degree Days 0 0  
Month to date cooling degree days 0  
Year to date cooling degree days 0  
Moisture  
Dew Point 29 °F    
Average Humidity 52    
Maximum Humidity 73    
Minimum Humidity 29    
Precipitation  
Precipitation 0.00 in 0.02 in 0.17 in (1986)
Month to date precipitation 0.52  
Year to date precipitation 0.52  
Snow  
Snow 0.00 in 0.00 in 0.10 in (1979)
Month to date snowfall 0.0  
Since 1 July snowfall 0.2  
Snow Depth -    
Sea Level Pressure  
Sea Level Pressure 30.31 in    
Wind  
Wind Speed 4 mph (South)    
Max Wind Speed 9 mph    
Max Gust Speed -    
Visibility 10 miles    
Events      
T = Trace of Precipitation, MM = Missing Value Source: NWS Daily Summary

Daily Weather History Graph

Daily Weather History Graph

Search for Another Location

Airport or City:

Trip Planner

Search our weather history database for the weather conditions in past years. The results will help you decide how hot, cold, wet, or windy it might be!

Date:

Astronomy

Jan. 30, 2013 Rise Set
Actual Time 6:42 AM PST 5:05 PM PST
Civil Twilight 6:15 AM PST 5:32 PM PST
Nautical Twilight 5:44 AM PST 6:03 PM PST
Astronomical Twilight 5:14 AM PST 6:33 PM PST
Moon 8:59 PM PST (1/30) 8:21 AM PST (1/30)
Length of Visible Light 11h 17m
Length of Day
10h 23m
Waning Gibbous, 87% of the Moon is Illuminated
Jan 30
Waning Gibbous
Feb 3
Last Quarter
Feb 9
New
Feb 17
First Quarter
Feb 25
Full

Hourly Weather History & Observations

Time (PST) Temp. Windchill Dew Point Humidity Pressure Visibility Wind Dir Wind Speed Gust Speed Precip Events Conditions
12:56 AM 41.9 °F 39.0 °F 26.1 °F 53% 30.30 in 10.0 mi East 4.6 mph - N/A   Clear
1:56 AM 39.9 °F - 26.1 °F 58% 30.32 in 10.0 mi Calm Calm - N/A   Clear
2:56 AM 36.9 °F 30.1 °F 27.1 °F 68% 30.34 in 10.0 mi South 9.2 mph - N/A   Clear
3:56 AM 36.0 °F 29.0 °F 27.1 °F 70% 30.34 in 10.0 mi South 9.2 mph - N/A   Clear
4:56 AM 34.9 °F 27.7 °F 27.1 °F 73% 30.34 in 10.0 mi SSW 9.2 mph - N/A   Clear
5:56 AM 34.9 °F 30.8 °F 27.1 °F 73% 30.35 in 10.0 mi South 4.6 mph - N/A   Clear
6:56 AM 35.6 °F - 26.6 °F 70% 30.33 in 10.0 mi Calm Calm - N/A   Clear
7:56 AM 38.8 °F - 29.1 °F 68% 30.38 in 10.0 mi Calm Calm - N/A   Clear
8:56 AM 45.9 °F - 29.1 °F 52% 30.39 in 10.0 mi Calm Calm - N/A   Clear
9:56 AM 50.0 °F - 26.6 °F 40% 30.36 in 10.0 mi Calm Calm - N/A   Clear
10:56 AM 52.9 °F - 25.2 °F 34% 30.36 in 10.0 mi Variable 3.5 mph - N/A   Clear
11:56 AM 55.9 °F - 27.1 °F 33% 30.34 in 10.0 mi Variable 4.6 mph - N/A   Clear
12:56 PM 57.2 °F - 26.6 °F 31% 30.30 in 10.0 mi Calm Calm - N/A   Clear
1:56 PM 59.9 °F - 27.1 °F 29% 30.27 in 10.0 mi Calm Calm - N/A   Clear
2:56 PM 61.0 °F - 28.0 °F 29% 30.27 in 10.0 mi Calm Calm - N/A   Clear
3:56 PM 60.8 °F - 28.4 °F 29% 30.25 in 10.0 mi Variable 3.5 mph - N/A   Clear
4:56 PM 57.9 °F - 30.0 °F 35% 30.26 in 10.0 mi South 9.2 mph - N/A   Clear
5:56 PM 52.9 °F - 32.0 °F 45% 30.27 in 10.0 mi South 9.2 mph - N/A   Clear
6:56 PM 51.8 °F - 32.0 °F 47% 30.25 in 10.0 mi Calm Calm - N/A   Clear
7:56 PM 47.8 °F - 32.0 °F 54% 30.30 in 10.0 mi Calm Calm - N/A   Clear
8:56 PM 45.0 °F - 32.0 °F 60% 30.30 in 10.0 mi Calm Calm - N/A   Clear
9:56 PM 43.9 °F - 31.1 °F 61% 30.30 in 10.0 mi Calm Calm - N/A   Clear
10:56 PM 41.9 °F - 31.1 °F 66% 30.31 in 10.0 mi Calm Calm - N/A   Clear
11:56 PM 41.0 °F 36.4 °F 31.1 °F 68% 30.31 in 10.0 mi SSE 6.9 mph - N/A   Clear